Location: Glen Avon
(34.0117°N, 117.4848°W)
Time: 20:12:25
(UTC+00:00)

ALOS - Pass Details

Date: 01 August 2021
Orbit: 682 x 685 km, 97.9° (Epoch: 20 September)

Event Time Altitude Azimuth Distance (km) Brightness Sun altitude
Rises 12:27:31 0° 0° (N) 3,054 6.0 -7.3°
Reaches altitude 10° 12:29:56 10° 351° (N) 2,134 5.1 -6.8°
Maximum altitude 12:34:05 33° 288° (WNW) 1,153 3.1 -6.0°
Drops below altitude 10° 12:38:12 10° 225° (SW) 2,120 4.2 -5.3°
Enters shadow 12:39:56 - 218° (SW) 2,767 4.8 -5.0°
